Torna al catalogo

ANIK C3 R/B

PAM-D

AttivoHEO
NORAD 13666·ROCKET BODY·🇺🇸 United States

Lanciato Nov 11, 1982 da Cape Canaveral Space Force Station

Loading…

Prossimi Passaggi (prossime 24 ore)

TLE

AggiornatoSource: Space-Track

Epoca: Sep 14, 2026, 14:59 UTC

1 13666U 82110E   26257.62473204  .00000060  00000-0  26495-3 0  9999
2 13666  23.0932 244.9073 7052352 190.4528 138.3022  2.52608143339572

Traccia ANIK C3 R/B in tempo reale con AllMySat

Download on the App Store